AirNav   Everest Fuels
 
 233 users online  

56NH Therriaults Landing Airport
Middleton, New Hampshire, USA

GOING TO MIDDLETON?


FAA INFORMATION EFFECTIVE 07 NOVEMBER 2019

Location

FAA Identifier: 56NH
Lat/Long: 43-28-52.0000N 071-03-24.7000W
43-28.866667N 071-03.411667W
43.4811111,-71.0568611
(estimated)
Elevation: 675 ft. / 206 m (estimated)
From city: 1 mile ENE of MIDDLETON, NH
Time zone: UTC -5 (UTC -4 during Daylight Saving Time)
Zip code: 03887

Airport Operations

Airport use: Private use. Permission required prior to landing
Activation date: 12/2015
Control tower: no
ARTCC: BOSTON CENTER
FSS: BANGOR FLIGHT SERVICE STATION
Attendance: CONTINUOUS
Wind indicator: yes
Segmented circle: no

Airport Communications

WX ASOS at DAW (13 nm SE): 135.275 (603-332-7814)
WX AWOS-3PT at SFM (16 nm E): 120.025 (207-324-1958)
WX AWOS-3PT at LCI (17 nm W): 133.525 (603-524-5134)

Nearby radio navigation aids

VOR radial/distance  VOR name  Freq  Var
ENEr297/19.6KENNEBUNK VOR/DME117.1017W
PSMr354/25.7PEASE VOR/DME116.5016W
CONr070/27.5CONCORD VOR/DME112.9015W
MHTr035/39.2MANCHESTER VOR/DME114.4015W

 
NDB name  Hdg/Dist  Freq  Var  ID
ROLLINS344/18.626016WESG . ... --.

Airport Services

Runway Information

Runway 15/33

Dimensions: 3000 x 100 ft. / 914 x 30 m
Surface: turf
RUNWAY 15  RUNWAY 33
Traffic pattern: leftleft

Airport Ownership and Management from official FAA records

Ownership: Privately-owned
Owner: CHARLES THERRIAULT
PO BOX 531
BARRINGTON, NH 03825
Phone 603-231-0284
Manager: CHARLES THERRIAULT
PO BOX 531
BARRINGTON, NH 03825
Phone 603-231-0284

Airport Operational Statistics

Aircraft based on the field: 1
Single engine airplanes: 1
    

Additional Remarks

FOR CD CTC BOSTON APCH AT 603-594-5551.

Instrument Procedures

There are no published instrument procedures at 56NH.

Some nearby airports with instrument procedures:

KDAW - Skyhaven Airport (13 nm SE)
KSFM - Sanford Seacoast Regional Airport (16 nm E)
KLCI - Laconia Municipal Airport (17 nm W)
3B4 - Littlebrook Air Park (24 nm SE)
B19 - Biddeford Municipal Airport (25 nm E)
 
Loc | Ops | Rwys | IFR | FBO | Links
Com | Nav | Svcs | Stats | Notes
Aerial photo
No photo
 
Airport distance calculator
Flying to Therriaults Landing Airport? Find the distance to fly.

From to 56NH

Sunrise and sunset
Times for 13-Nov-2019
 Local
(UTC-5)
 Zulu
(UTC)
Morning civil twilight06:0611:06
Sunrise06:3611:36
Sunset16:2121:21
Evening civil twilight16:5221:52

Current date and time
Zulu (UTC)  13-Nov-2019 10:19:43
Local (UTC-5)  13-Nov-2019 05:19:43
 
METAR
KDAW 
13nm SE 
130951Z AUTO 30011G20KT 10SM CLR M10/M18 A3001 RMK AO2 SLP166 T11001178
KSFM 
16nm E 
130956Z AUTO 29015G20KT 10SM CLR M10/M17 A3001 RMK AO2 SLP170 T11001167 FZRANO
KLCI 
16nm W 
130956Z AUTO 27006KT 10SM CLR M12/M16 A3004 RMK AO2 SLP184 T11221161 FZRANO
KCON 
26nm SW 
130951Z AUTO 29012G18KT 10SM CLR M11/M17 A3007 RMK AO2 SLP189 T11061167
TAF
KCON 
26nm SW 
130520Z 1306/1406 31014G18KT P6SM BKN045
KPSM 
27nm SE 
130520Z 1306/1406 29016G25KT P6SM FEW045
NOTAMs
Click for the latest NOTAMs
NOTAMs are issued by the DoD/FAA and will open in a separate window not controlled by AirNav.

 

 
 

Would you like to see your business listed on this page?

 If your business provides an interesting product or service to pilots, flight crews, aircraft, or users of the Therriaults Landing Airport, you should consider listing it here.  To start the listing process, click on the button below
 
Add a business
 

Other Pages about Therriaults Landing Airport

Update a link
 
Copyright © AirNav, LLC. All rights reserved. Privacy Policy  Contact